Regional Weather Roundup
Issued by NWS

Home | Current Version | Previous Version | Text Only | Print | Product List | Glossary On
Versions: 1 2 3 4 5 6 7 8 9 10 11 12 13 14 15 16 17 18 19 20 21 22 23 24 25 26 27 28 29 30 31 32 33 34 35 36 37 38 39 40 41 42 43 44 45 46 47 48 49 50
635
ASUS43 KTOP 221459
RWRKS

WEATHER ROUNDUP FOR KANSAS
NATIONAL WEATHER SERVICE GOODLAND KS
900 AM CST SUN JAN 22 2017

NOTE:  "FAIR" INDICATES FEW OR NO CLOUDS BELOW 12,000 FEET WITH NO
SIGNIFICANT WEATHER AND/OR OBSTRUCTIONS TO VISIBILITY.

KSZ001>006-013>018-027>032-041>047-221600-
NORTHWEST KANSAS

CITY           SKY/WX    TMP DP  RH WIND       PRES   REMARKS
GOODLAND       CLEAR     31  27  85 NW12      29.85R WCI  22
HAYS           SUNNY     36  31  82 NW10      29.81R WCI  28
HILL CITY      SUNNY     32  30  92 W7        29.83R
RUSSELL        SUNNY     34  30  85 NW9       29.77R
$$

KSZ061>065-074>080-084>089-221600-
SOUTHWEST KANSAS

CITY           SKY/WX    TMP DP  RH WIND       PRES   REMARKS
DODGE CITY     SUNNY     34  30  85 NW13      29.81R WCI  25
ELKHART          N/A     33  24  69 W10         N/A  WCI  25
GARDEN CITY    SUNNY     33  29  85 NW12      29.83R WCI  24
GREAT BEND     MOSUNNY   35  31  85 N10       29.79R WCI  27
LIBERAL          N/A     34  28  80 NW13      29.85R WCI  25
$$

KSZ066>073-081>083-090>101-221600-
SOUTHEAST KANSAS

CITY           SKY/WX    TMP DP  RH WIND       PRES   REMARKS
CHANUTE        LGT RAIN  47  44  90 N15G23    29.60R FOG
COFFEYVILLE    RAIN      49  47  93 N20       29.56R FOG
HUTCHINSON     SUNNY     41  34  76 N14G20    29.74R
MEDICINE LODGE   N/A     40  37  89 N14       29.74R WCI  32
NEWTON         PTSUNNY   39  37  92 N20       29.71R WCI  29
PARSONS        LGT RAIN  48  45  89 N17G25    29.58R
WICHITA INTL   PTSUNNY   41  37  86 N18       29.70R
WICHITA JABRA  PTSUNNY   42  39  89 N16       29.69R
WINFIELD       PTSUNNY   46  42  86 N18G26    29.66R
$$

KSZ007>012-019>026-033>040-048>060-102>105-221600-
NORTHEAST KANSAS

CITY           SKY/WX    TMP DP  RH WIND       PRES   REMARKS
CONCORDIA      CLOUDY    33  31  92 NW7       29.76R
EMPORIA        CLOUDY    43  39  86 N12G22    29.67R
LAWRENCE       CLOUDY    41  38  89 NW10      29.68R
MANHATTAN      CLOUDY    38  32  79 N7        29.73R
OLATHE IND     CLOUDY    44  42  93 N10       29.66R
OLATHE EXE     CLOUDY    44  42  93 N9        29.66R
SALINA         SUNNY     37  32  82 NW6       29.76R
TOPEKA BILLARD PTSUNNY   40  34  79 N10       29.70R WCI  33
TOPEKA FORBES  MOSUNNY   41  36  82 N12G21    29.68R
$$




USA.gov is the U.S. government's official web portal to all federal, state and local government web resources and services.